Stations météo

réclame
Mon MeteoGroup
Meaulte, France (7059): Température de l'air & dewpoint: 16.10.2017 01:00:00 - 22.10.2017 01:00:00 (CEST)Meaulte, France (7059): Vitesse du vent & gusts: 16.10.2017 01:00:00 - 22.10.2017 01:00:00 (CEST)Meaulte, France (7059): Direction du vent: 16.10.2017 01:00:00 - 22.10.2017 01:00:00 (CEST)Meaulte, France (7059): reduced air pressure: 16.10.2017 01:00:00 - 22.10.2017 01:00:00 (CEST)Meaulte, France (7059): visibility: 16.10.2017 01:00:00 - 22.10.2017 01:00:00 (CEST)Meaulte, France (7059): Quantités de précipitations: 16.10.2017 01:00:00 - 22.10.2017 01:00:00 (CEST)
Date & Time tt [°C] td [°C] ff [km/h] ff [knt] fx [km/h] fx [knt] dd ppp [hPa] vv [km] rr [mm]
22.10.2017 01:00:00 - - - - - - - - - -
22.10.2017 00:00:00 10,0 6,7 31 17 48 26 SSW 1011,6 60 0,0
21.10.2017 23:00:00 10,4 6,9 34 18 48 26 SSW 1011,7 60 -
21.10.2017 22:00:00 10,1 8,0 24 13 35 19 SSW 1011,9 60 0,0
21.10.2017 21:00:00 10,3 7,4 28 15 55 30 SW 1011,9 60 0,2
21.10.2017 20:00:00 10,7 8,3 28 15 57 31 SW 1012,1 60 -
21.10.2017 19:00:00 13,1 7,5 28 15 54 29 SSW 1010,9 60 0,0
21.10.2017 18:00:00 15,1 5,9 41 22 59 32 SW 1010,6 45 0,0
21.10.2017 17:00:00 15,9 7,6 31 17 57 31 SW 1010,5 35 -
21.10.2017 16:00:00 17,0 7,1 39 21 61 33 SW 1010,3 19 0,0
21.10.2017 15:00:00 17,1 7,7 42 23 63 34 SW 1010,6 19 0,0
21.10.2017 14:00:00 15,6 8,6 41 22 55 30 SW 1010,9 23 -
21.10.2017 13:00:00 15,3 9,2 39 21 59 32 SW 1011,3 19 0,0
21.10.2017 12:00:00 15,1 10,3 34 18 57 31 SW 1011,4 30 0,0
21.10.2017 11:00:00 14,8 11,0 37 20 54 29 SW 1011,1 40 -
21.10.2017 10:00:00 14,3 11,8 34 18 50 27 SW 1010,7 35 0,0
21.10.2017 09:00:00 14,4 12,8 29 16 42 23 SSW 1010,1 45 0,0
21.10.2017 08:00:00 13,6 12,8 26 14 41 22 SSW 1009,5 13 -
21.10.2017 07:00:00 12,8 12,0 28 15 44 24 S 1009,2 19 0,2
21.10.2017 06:00:00 11,9 11,1 26 14 41 22 S 1009,2 23 0,2
21.10.2017 05:00:00 12,2 9,9 28 15 44 24 S 1009,7 35 -
21.10.2017 04:00:00 11,7 9,4 26 14 41 22 S 1009,7 29 0,0
21.10.2017 03:00:00 11,3 8,9 22 12 31 17 S 1010,8 40 0,0
21.10.2017 02:00:00 11,1 8,5 21 11 29 16 S 1011,6 29 -
21.10.2017 01:00:00 11,2 8,2 16 9 26 14 S 1012,0 35 0,0
21.10.2017 00:00:00 10,9 8,3 16 9 26 14 S 1012,7 35 0,0
20.10.2017 23:00:00 10,9 7,8 13 7 22 12 S 1013,2 45 -
20.10.2017 22:00:00 11,1 8,0 15 8 21 11 S 1013,4 26 0,0
20.10.2017 21:00:00 11,4 8,1 15 8 21 11 S 1013,7 24 0,0
20.10.2017 20:00:00 11,5 8,2 15 8 28 15 SSW 1013,8 24 -
20.10.2017 19:00:00 13,0 8,1 18 10 31 17 SSW 1013,7 35 0,0
20.10.2017 18:00:00 13,4 9,1 18 10 44 24 SW 1013,3 40 0,0
20.10.2017 17:00:00 15,1 8,1 31 17 46 25 SW 1012,9 40 -
20.10.2017 16:00:00 14,8 8,7 29 16 50 27 WSW 1012,5 40 0,0
20.10.2017 15:00:00 14,4 8,8 31 17 57 31 WSW 1012,2 45 0,0
20.10.2017 14:00:00 - - - - - - - - - -
20.10.2017 13:00:00 13,4 9,8 37 20 55 30 SW 1011,9 35 0,0
20.10.2017 12:00:00 13,0 9,8 39 21 61 33 SW 1011,2 40 0,0
20.10.2017 11:00:00 12,3 9,1 37 20 54 29 SW 1010,6 17 -
20.10.2017 10:00:00 11,6 9,3 31 17 48 26 SSW 1009,5 17 0,0
20.10.2017 09:00:00 10,6 8,9 29 16 44 24 SSW 1008,8 19 0,0
20.10.2017 08:00:00 11,1 9,4 29 16 42 23 SW 1008,1 50 -
20.10.2017 07:00:00 11,4 9,3 29 16 46 25 SW 1007,5 55 0,0
20.10.2017 06:00:00 12,8 11,9 24 13 41 22 SSW 1006,4 40 0,0
20.10.2017 05:00:00 13,3 12,4 26 14 52 28 SSW 1005,9 19 -
20.10.2017 04:00:00 13,5 12,6 39 21 61 33 SSW 1005,5 15 3,0
20.10.2017 03:00:00 13,9 12,9 26 14 41 22 S 1006,0 5 2,0
20.10.2017 02:00:00 14,8 11,9 18 10 35 19 S 1006,2 55 -
20.10.2017 01:00:00 14,9 12,2 24 13 37 20 S 1006,4 55 0,0
20.10.2017 00:00:00 15,6 12,9 22 12 31 17 S 1006,6 55 0,0
19.10.2017 23:00:00 16,6 13,1 21 11 35 19 S 1006,3 55 -
19.10.2017 22:00:00 17,5 12,6 21 11 41 22 S 1006,2 60 0,0
19.10.2017 21:00:00 - - - - - - - - - -
19.10.2017 20:00:00 18,1 12,8 18 10 26 14 S 1006,6 60 -
19.10.2017 19:00:00 18,4 12,4 16 9 37 20 S 1006,9 60 0,0
19.10.2017 18:00:00 19,8 12,8 22 12 37 20 S 1006,5 50 0,0
19.10.2017 17:00:00 20,6 12,8 24 13 46 25 SSW 1006,5 35 -
19.10.2017 16:00:00 20,7 13,2 31 17 50 27 SSW 1006,5 50 0,0
19.10.2017 15:00:00 21,3 13,5 34 18 50 27 S 1006,5 14 0,0
19.10.2017 14:00:00 20,9 13,8 28 15 44 24 S 1006,6 13 -
19.10.2017 13:00:00 19,4 13,8 24 13 35 19 S 1007,7 14 0,0
19.10.2017 12:00:00 17,3 13,4 18 10 31 17 SSE 1008,4 7 0,0
19.10.2017 11:00:00 14,7 12,4 21 11 28 15 SSE 1008,9 7 -
19.10.2017 10:00:00 12,0 10,9 15 8 22 12 SE 1009,3 10 0,0
19.10.2017 09:00:00 11,3 10,4 15 8 24 13 SE 1009,5 9 0,2
19.10.2017 08:00:00 11,0 10,2 13 7 21 11 SE 1009,1 9 -
19.10.2017 07:00:00 10,8 9,7 9 5 22 12 SE 1009,5 9 0,0
19.10.2017 06:00:00 11,6 10,3 15 8 22 12 SE 1009,7 11 0,0
19.10.2017 05:00:00 12,3 10,4 4 2 13 7 SSE 1009,6 16 -
19.10.2017 04:00:00 12,6 10,8 9 5 13 7 ESE 1010,0 16 0,0
19.10.2017 03:00:00 12,6 11,0 11 6 15 8 ESE 1010,8 15 0,0
19.10.2017 02:00:00 12,7 11,4 13 7 16 9 SE 1011,2 12 -
19.10.2017 01:00:00 12,9 11,8 11 6 15 8 SE 1011,6 10 0,0
19.10.2017 00:00:00 13,6 12,3 11 6 15 8 SSE 1011,8 11 0,0
18.10.2017 23:00:00 14,0 12,2 11 6 13 7 SE 1011,7 12 -
18.10.2017 22:00:00 14,5 12,5 9 5 13 7 SSE 1011,8 14 0,0
18.10.2017 21:00:00 16,1 13,0 9 5 11 6 SE 1011,8 18 0,0
18.10.2017 20:00:00 16,2 13,1 9 5 11 6 SSE 1011,7 19 -
18.10.2017 19:00:00 18,0 13,7 8 4 15 8 S 1011,4 26 0,0
18.10.2017 18:00:00 19,4 14,0 15 8 21 11 S 1011,3 29 0,0
18.10.2017 17:00:00 20,2 14,6 15 8 22 12 S 1011,4 26 -
18.10.2017 16:00:00 20,5 15,1 15 8 22 12 S 1011,5 18 0,0
18.10.2017 15:00:00 19,8 15,2 13 7 21 11 SSE 1011,7 17 0,0
18.10.2017 14:00:00 - - - - - - - - - -
18.10.2017 13:00:00 - - - - - - - - - -
18.10.2017 12:00:00 - - - - - - - - - -
18.10.2017 11:00:00 - - - - - - - - - -
18.10.2017 10:00:00 - - - - - - - - - -
18.10.2017 09:00:00 - - - - - - - - - -
18.10.2017 08:00:00 - - - - - - - - - -
18.10.2017 07:00:00 - - - - - - - - - -
18.10.2017 06:00:00 - - - - - - - - - -
18.10.2017 05:00:00 - - - - - - - - - -
18.10.2017 04:00:00 - - - - - - - - - -
18.10.2017 03:00:00 - - - - - - - - - -
18.10.2017 02:00:00 - - - - - - - - - -
18.10.2017 01:00:00 - - - - - - - - - -
18.10.2017 00:00:00 - - - - - - - - - -
17.10.2017 23:00:00 - - - - - - - - - -
17.10.2017 22:00:00 - - - - - - - - - -
17.10.2017 21:00:00 - - - - - - - - - -
17.10.2017 20:00:00 - - - - - - - - - -
17.10.2017 19:00:00 - - - - - - - - - -
17.10.2017 18:00:00 - - - - - - - - - -
17.10.2017 17:00:00 - - - - - - - - - -
17.10.2017 16:00:00 - - - - - - - - - -
17.10.2017 15:00:00 - - - - - - - - - -
17.10.2017 14:00:00 18,0 13,7 4 2 9 5 SSE 1020,6 12 -
17.10.2017 13:00:00 16,0 13,5 4 2 8 4 S 1021,7 13 0,0
17.10.2017 12:00:00 14,7 14,1 0 0 5 3 N 1022,2 11 0,0
17.10.2017 11:00:00 13,5 13,3 5 3 5 3 SE 1022,7 5 -
17.10.2017 10:00:00 11,9 11,7 5 3 8 4 SSE 1022,8 3,0 0,0
17.10.2017 09:00:00 11,3 11,1 5 3 8 4 SSE 1022,9 0,2 0,0
17.10.2017 08:00:00 11,5 11,3 5 3 5 3 SE 1022,5 0,9 -
17.10.2017 07:00:00 11,3 11,0 5 3 11 6 SSE 1022,6 0,2 0,0
17.10.2017 06:00:00 11,7 11,2 8 4 9 5 S 1022,3 0,1 0,0
17.10.2017 05:00:00 12,3 11,5 5 3 13 7 SSW 1022,2 9 -
17.10.2017 04:00:00 12,7 11,6 8 4 11 6 W 1022,3 12 0,0
17.10.2017 03:00:00 13,6 12,2 8 4 15 8 WNW 1022,2 14 0,0
17.10.2017 02:00:00 14,4 12,6 13 7 18 10 W 1022,1 14 -
17.10.2017 01:00:00 15,0 13,4 5 3 16 9 WNW 1022,1 12 0,0
17.10.2017 00:00:00 16,0 14,2 13 7 24 13 WNW 1021,8 15 0,0
16.10.2017 23:00:00 15,7 13,9 11 6 13 7 SW 1021,3 18 -
16.10.2017 22:00:00 16,7 14,2 8 4 11 6 S 1020,7 24 0,0
16.10.2017 21:00:00 17,3 14,4 8 4 15 8 W 1020,5 26 0,0
16.10.2017 20:00:00 19,0 14,3 13 7 18 10 S 1020,3 35 -
16.10.2017 19:00:00 21,3 14,2 13 7 21 11 S 1019,7 40 0,0
16.10.2017 18:00:00 23,0 14,3 13 7 26 14 S 1019,2 45 0,0
16.10.2017 17:00:00 24,0 14,1 22 12 39 21 S 1018,6 4,8 -
16.10.2017 16:00:00 24,3 13,8 24 13 39 21 S 1018,6 7 0,0
16.10.2017 15:00:00 24,1 13,6 26 14 41 22 S 1019,2 9 0,0
16.10.2017 14:00:00 23,6 14,0 28 15 41 22 S 1019,6 6 -
16.10.2017 13:00:00 22,7 14,3 22 12 35 19 S 1020,3 20 0,0
16.10.2017 12:00:00 20,3 15,5 21 11 29 16 SSE 1020,8 19 0,0
16.10.2017 11:00:00 17,8 15,2 18 10 26 14 SSE 1020,9 19 -
16.10.2017 10:00:00 15,5 13,9 16 9 22 12 SE 1021,0 17 0,0
16.10.2017 09:00:00 14,2 13,2 16 9 22 12 SE 1020,9 13 0,0
16.10.2017 08:00:00 14,1 13,1 18 10 22 12 SE 1020,6 13 -
16.10.2017 07:00:00 14,1 13,1 16 9 21 11 SSE 1020,7 13 0,0
16.10.2017 06:00:00 14,4 13,3 16 9 18 10 SSE 1020,6 13 0,0
16.10.2017 05:00:00 14,8 13,5 13 7 21 11 SSE 1020,6 14 -
16.10.2017 04:00:00 15,9 14,1 16 9 21 11 SSE 1020,8 18 0,0
16.10.2017 03:00:00 16,6 14,6 13 7 18 10 SSE 1021,2 19 0,0
16.10.2017 02:00:00 17,3 14,8 15 8 26 14 S 1021,1 23 -
16.10.2017 01:00:00 17,5 14,8 15 8 26 14 S 1021,0 24 0,2

tt = Température de l'air
td = dewpoint
ff = Vitesse du vent
fx = gusts
dd = Direction du vent
ppp = reduced air pressure
vv = visibility
rr = Quantités de précipitations

stations d'obs. à proximité